Location: Pedholt
(56.0260°N, 10.2097°E)
Time: 19:23:38
(UTC+00:00)

SR - Pass Details

Date: 04 August 2021
Orbit: 581 x 873 km, 66.7° (Epoch: 27 September)

Event Time Altitude Azimuth Distance (km) Brightness Sun altitude
Rises 04:41:34 0° 197° (SSW) 3,423 ? 8.3°
Reaches altitude 10° 04:44:11 10° 191° (S) 2,465 ? 8.6°
Maximum altitude 04:49:32 43° 122° (ESE) 1,126 ? 9.3°
Drops below altitude 10° 04:54:35 10° 52° (NE) 2,324 ? 10.0°
Sets 04:57:00 0° 46° (NE) 3,206 ? 10.3°
